Regional Weather Roundup
Issued by NWS

Home | Current Version | Previous Version | Text Only | Print | Product List | Glossary On
Versions: 1 2 3 4 5 6 7 8 9 10 11 12 13 14 15 16 17 18 19 20 21 22 23 24 25 26 27 28 29 30 31 32 33 34 35 36 37 38 39 40 41 42 43 44 45 46 47 48 49 50
000
ASHW40 PHFO 280830
RWRHI

WEATHER ROUNDUP FOR HAWAII
NATIONAL WEATHER SERVICE HONOLULU HI
1000 PM HST THU NOV 27 2014

THIS IS AN AUTOMATED REPORT THAT HAS NOT BEEN QUALITY CONTROLLED.

NOTE..."FAIR" INDICATES FEW OR NO CLOUDS BELOW 12,000 FEET WITH NO
SIGNIFICANT WEATHER AND/OR OBSTRUCTIONS TO VISIBILITY.

* - THESE SITES REPORT LIMITED FIELDS

HIZ001>004-280900-
KAUAI-NIIHAU-

CITY           SKY/WX    TMP DP  RH WIND       PRES   REMARKS
LIHUE APT      MOCLDY    73  64  73 NE23      30.12S
PORT ALLEN*      N/A     73 N/A N/A E13G18      N/A
POIPU*           N/A     75 N/A N/A NE9G25      N/A
PRINCEVILLE*     N/A     72 N/A N/A MISG        N/A
KOKOLE POINT*  NOT AVBL
MOLOAA DAIRY*  NOT AVBL
WAIMEA HTS*    NOT AVBL
PUU OPAE*      NOT AVBL
PUU LUA*       NOT AVBL
MAKAHA RIDGE*  NOT AVBL
$$

HIZ005>011-280900-
OAHU-

CITY           SKY/WX    TMP DP  RH WIND       PRES   REMARKS
HONOLULU       PTCLDY    75  59  57 NE15      30.07F
KALAELOA       PTCLDY    71  58  63 VRB3      30.09S
KANEOHE MCB    MOCLDY    75  58  55 NE10G20   30.08R
WHEELER FIELD  MOCLDY    71  58  64 VRB2      30.10S
BELLOWS*         N/A    N/A N/A N/A NE22        N/A
KAHUKU*          N/A    N/A N/A N/A NE10G20     N/A
WHEELER*       NOT AVBL
WAIANAE HARBOR NOT AVBL
DILLINGHAM*      N/A     70  59  68 E3          N/A
KAHUKU TRN*      N/A     72  55  56 E14G26      N/A
KAWAILOA*        N/A     68  57  68 NE12G26     N/A
KII*             N/A     75  59  57 E22G31      N/A
MAKUA RANGE*     N/A     73  57  56 E3G18       N/A
OAHU FOREST NW NOT AVBL
SCHOFIELD BRK*   N/A     68  57  68 MISG        N/A
SCHOFIELD S*   NOT AVBL
WAIANAE VLY*   NOT AVBL
KUAOKALA*      NOT AVBL
HONOULIUULI*   NOT AVBL
MOKUOLOE IS*     N/A    N/A N/A N/A MISG        N/A
PALEHUA*       NOT AVBL
WAIAWA PHB*    NOT AVBL
$$

HIZ012>013-280900-
MOLOKAI-

CITY           SKY/WX    TMP DP  RH WIND       PRES   REMARKS
MOLOKAI AIRPT  CLOUDY    73  62  68 NE14G24   30.09S
KALAUPAPA      NOT AVBL
MAKAPULAPAI*   NOT AVBL
MOLOKAI 1*     NOT AVBL
PUU ALII*        N/A     55  55  98 E3G14       N/A
$$

HIZ016-280900-
KAHOOLAWE-

CITY           SKY/WX    TMP DP  RH WIND       PRES   REMARKS
KAHOOLAWE*     NOT AVBL
HAKIOAWA*      NOT AVBL
HONOKANAIA*      N/A     75  62  62 VRB12G18  30.07
KANELOA*         N/A     72  61  68 NE7G23    29.28R
KEALIALALO*    NOT AVBL
LUA MAKIKA*    NOT AVBL
$$

HIZ014>015-280900-
LANAI-

CITY           SKY/WX    TMP DP  RH WIND       PRES   REMARKS
LANAI CITY     FAIR      69  59  70 NE29G37   30.09S
LANAI 1*       NOT AVBL
$$

HIZ017>028-280900-
MAUI-

CITY           SKY/WX    TMP DP  RH WIND       PRES   REMARKS
KAHULUI        CLOUDY    76  62  62 NE17      30.09S
KAPALUA-W MAUI NOT AVBL
HANA AIRPORT   CLOUDY    75  64  69 NE9       30.12S
HANA*            N/A     75 N/A N/A NE15G21     N/A
HALEAKALA SUMM   N/A     48  -2  12 SE10        N/A
MAALAEA BAY*   NOT AVBL
HALEAKALA*     NOT AVBL
KAUPO GAP*     NOT AVBL
KULA 1*          N/A    N/A N/A N/A E3          N/A
$$

HIZ023>026-280900-
BIG ISLAND OF HAWAII COAST AND LOWER SLOPES-

CITY           SKY/WX    TMP DP  RH WIND       PRES   REMARKS
KAILUA KONA    CLEAR     75  65  70 N7        29.99S
HILO           CLOUDY    70  68  93 SW3       30.08S
HONOKAA*       NOT AVBL
KAWAIHAE MWT*    N/A     79 N/A N/A E6G17       N/A
KAWAIHAE*        N/A     81 N/A N/A NW12        N/A
SOUTH POINT*     N/A     68 N/A N/A N6          N/A
UPOLU AIRPORT*   N/A    N/A N/A N/A E13G18      N/A
KAMUELA*       LGT RAIN  63  63 100 NE25      30.12S VSB 1/2
HAKALAU*         N/A     41  37  87 W5          N/A
KALOKO-HONOKO*   N/A     73  63  68 N1G8      29.98S
PALI 2*          N/A     64  57  77 N18G30      N/A
KEALAKOMO*       N/A     75  64  69 N26G44      N/A
KAUPULEHU*     NOT AVBL
KAPAPALA*        N/A     65  56  72 VRB1G12     N/A
LOWER KAHUKU*    N/A     61  55  82 N3          N/A
PUHE CS*       NOT AVBL
PUHO CS*         N/A     73  60  63 E2          N/A
PTA KEAMUKU*     N/A     61  55  82 CALM        N/A
WAIKOLOA*      NOT AVBL
$$

HIZ027>028-280900-
BIG ISLAND OF HAWAII INTERIOR AND SUMMMITS-

CITY           SKY/WX    TMP DP  RH WIND       PRES   REMARKS
BRADSHAW FIELD PTCLDY    48  42  79 SE6       30.35F
MK VISITOR CEN   N/A      0   0 100 MISG        N/A
MAUNA KEA*       N/A     37   0  20 CALM        N/A
MAUNA LOA*       N/A     45   9  23 MISG        N/A
MAUNA LOA 1*   NOT AVBL
PTA KIPUKA*      N/A     52  50  93 SE5         N/A
PTA RANGE 17*    N/A     54  50  87 E12G18      N/A
PTA WEST*        N/A     55  50  82 SE10        N/A
NENE CABIN*      N/A    N/A N/A N/A NE5G10      N/A
AHUMOA*        NOT AVBL
PTA PORTABLE*  NOT AVBL
PUU MALI*      NOT AVBL
$$

HIC003-280900-
NORTHWEST ISLANDS-

CITY           SKY/WX    TMP DP  RH WIND       PRES   REMARKS
MIDWAY ISLAND  LGT RAIN  72  70  94 S23       30.05S VSB 1
MIDWAY NOS*    NOT AVBL
FRENCH FRIGATE NOT AVBL
$$

PHZ110>124-180-280900-
BUOY REPORTS

STATION/POSITION TIME  TEMP    WIND        PRES    WAVE   SWELL
                       AIR SEA DIR/SP/G            HT/PER HT/DIR
                 (UTC) (F)     (DEG/KT/KT) (MB)    (FT/S) (FT/D)
BUOY 51001       NOT AVBL
BUOY 51101       0800   75 77   60/ 16/ 19 1021.6S  10/11  10/360
BUOY 51100       0700   75 78   50/ 12/ 16 1020.3R
BUOY 51003       0800   78 80   60/ 19/ 21 1016.4F  10/ 8   5
BUOY 51004       0720   78 80   70/ 17/ 19 1014.8F  10/12   8/360
BARBERS PT BUOY  NOT AVBL
WAIMEA BAY BUOY  0800      78                N/A     9/13   7
KAILUA BAY BUOY  0800      79                N/A     9/13   5
LANAI BUOY       0800      79                N/A     3/13   2/280
BARBERS PT 2     0800      78                N/A     4/14   2/320
PAUWELA MAUI     0800      79                N/A    10/14   7/360
HILO             0800      79                N/A    10/10   5/ 10
KANEOHE BAY BUOY 0800      78                N/A     9/13   3/ 10
HANALEI KAUAI    NOT AVBL
KAHULUI HARBOR   0800   76 77   40/ 15/ 20 1018.7F
HONOLULU HARBOR  0800   75      70/  5/  9 1018.7S
KILO NALU        NOT AVBL
HILO HARBOR      0800   71     140/  3/  5 1018.1R
MOKUOLOE         0800      76              1019.6S
NAWILIWILI       0800      79                N/A
WHOTS BUOY       NOT AVBL
BUOY 51028       NOT AVBL
$$

......................KEY........................................
  SKY/WX - SKY CONDITIONS/PRESENT WEATHER
  TMP    - TEMPERATURE IN FAHRENHEIT
  DWPT   - DEWPOINT IN FAHRENHEIT
  RH     - RELATIVE HUMIDITY IN PERCENT
  WIND   - DIRECTION AND SPEED /MPH FOR ISLANDS...KTS FOR BUOYS/
  PRES   - MEAN SEA LEVEL PRESSURE IN INCHES OF HG
  VSB    - VISIBILITY IN MILES
  HX     - HEAT INDEX
  WCI    - WIND CHILL INDEX
  VRB    - VARIABLE WIND DIRECTION
  N/A    - NOT AVAILABLE


USA.gov is the U.S. government's official web portal to all federal, state and local government web resources and services.